Location: Golden Pond Observatory
(36.7667°N, 88.0167°W)
Time: 21:28:37
(UTC-05:00)

ISS - Pass Details

Date: 26 July 2018
Orbit: 402 x 409 km, 51.6° (Epoch: 18 August)

Event Time Altitude Azimuth Distance (km) Brightness Sun altitude
Rises 20:52:01 0° 284° (WNW) 2,317 1.6 -9.3°
Reaches altitude 10° 20:55:29 10° 323° (NW) 1,463 0.3 -9.9°
Maximum altitude 20:56:25 11° 340° (NNW) 1,411 -0.2 -10.0°
Drops below altitude 10° 20:57:21 10° 357° (N) 1,465 -0.5 -10.2°
Sets 21:00:51 0° 36° (NE) 2,331 0.0 -10.8°
